TimeNDT,TemperatureF,Dew PointF,Humidity,Sea Level PressureIn,VisibilityMPH,Wind Direction,Wind SpeedMPH,Gust SpeedMPH,PrecipitationIn,Events,Conditions,WindDirDegrees,DateUTC
12:30 AM,51,49,92,30.22,,NE,13.8,,,,,50,2012-10-29 03:00:00
12:30 AM,51.3,49.5,94,30.22,-9999.0,NE,13.8,-,N/A,,Unknown,50,2012-10-29 03:00:00
1:30 AM,51.1,49.3,94,30.24,-9999.0,ENE,12.7,-,N/A,,Unknown,60,2012-10-29 04:00:00
2:30 AM,50.5,48.6,93,30.25,-9999.0,ENE,15.0,-,N/A,,Unknown,70,2012-10-29 05:00:00
3:30 AM,50,48,89,30.26,,NE,15.0,,,,,50,2012-10-29 06:00:00
3:30 AM,49.8,47.8,93,30.26,-9999.0,NE,15.0,-,N/A,,Unknown,50,2012-10-29 06:00:00
4:30 AM,49.5,47.5,93,30.26,-9999.0,NE,10.4,-,N/A,,Unknown,50,2012-10-29 07:00:00
5:30 AM,49.5,47.7,94,30.27,-9999.0,NE,11.5,-,N/A,,Unknown,40,2012-10-29 08:00:00
6:30 AM,49,48,94,30.28,,NE,11.5,,,,,40,2012-10-29 09:00:00
6:30 AM,49.3,47.8,95,30.28,-9999.0,NE,11.5,-,N/A,,Unknown,40,2012-10-29 09:00:00
7:30 AM,50.0,48.6,95,30.29,-9999.0,NE,13.8,-,N/A,,Unknown,50,2012-10-29 10:00:00
8:30 AM,50.7,49.1,94,30.30,-9999.0,ENE,12.7,-,N/A,,Unknown,60,2012-10-29 11:00:00
9:30 AM,51,50,93,30.32,,NE,12.7,,,,,50,2012-10-29 12:00:00
9:30 AM,51.4,49.6,94,30.32,-9999.0,NE,12.7,-,N/A,,Unknown,50,2012-10-29 12:00:00
10:30 AM,52.9,50.5,92,30.32,-9999.0,NE,11.5,-,N/A,,Unknown,50,2012-10-29 13:00:00
11:30 AM,53.6,50.9,91,30.32,-9999.0,NE,13.8,-,N/A,,Unknown,50,2012-10-29 14:00:00
12:30 PM,54,52,89,30.31,,NE,12.7,,,,,40,2012-10-29 15:00:00
12:30 PM,54.1,51.6,91,30.31,-9999.0,NE,12.7,-,N/A,,Unknown,40,2012-10-29 15:00:00
1:30 PM,54.9,52.0,90,30.32,-9999.0,NE,12.7,-,N/A,,Unknown,40,2012-10-29 16:00:00
2:30 PM,55.8,52.2,88,30.31,-9999.0,NE,15.0,-,N/A,,Unknown,50,2012-10-29 17:00:00
3:30 PM,57,53,81,30.32,,NE,13.8,,,,,40,2012-10-29 18:00:00
3:30 PM,57.2,52.7,85,30.32,-9999.0,NE,13.8,-,N/A,,Unknown,40,2012-10-29 18:00:00
4:30 PM,55.4,51.3,86,30.33,-9999.0,NE,12.7,-,N/A,,Unknown,50,2012-10-29 19:00:00
5:30 PM,54.0,50.5,88,30.35,-9999.0,NE,11.5,-,N/A,,Unknown,50,2012-10-29 20:00:00
6:30 PM,53,50,87,30.37,,ENE,10.4,,,,,60,2012-10-29 21:00:00
6:30 PM,53.1,50.4,91,30.37,-9999.0,ENE,10.4,-,N/A,,Unknown,60,2012-10-29 21:00:00
7:30 PM,52.3,49.8,91,30.38,-9999.0,ENE,11.5,-,N/A,,Unknown,70,2012-10-29 22:00:00
8:30 PM,52.5,49.5,89,30.38,-9999.0,East,11.5,-,N/A,,Unknown,80,2012-10-29 23:00:00
9:30 PM,51,48,87,30.40,,ENE,10.4,,,,,70,2012-10-30 00:00:00
9:30 PM,51.3,48.2,89,30.40,-9999.0,ENE,10.4,-,N/A,,Unknown,70,2012-10-30 00:00:00
10:30 PM,50.4,47.5,90,30.39,-9999.0,ENE,9.2,-,N/A,,Unknown,60,2012-10-30 01:00:00